GW3916 Weather Reports


Display with metric or nautical units.
time (UTC)temp
F
wind
direction
speed
MPH
gust
MPH
rain 1hr
in
rain 24hr
in
rain mn
in
humidity
%
barometer
mb
20260505062831 51 186 0.0 2.0 0.00 0.00 0.00 93 1010.7
20260505062333 51 186 0.0 2.0 0.00 0.00 0.00 93 1010.7
20260505061822 51 186 0.0 0.0 0.00 0.00 0.00 93 1010.6
20260505061337 52 186 0.0 0.0 0.00 0.00 0.00 92 1010.6
20260505060831 52 186 0.0 0.0 0.00 0.00 0.00 92 1010.6
20260505060306 52 186 0.0 0.0 0.00 0.00 0.00 92 1010.5
20260505055850 52 186 0.0 0.0 0.00 0.00 0.00 92 1010.5
20260505055341 52 186 0.0 2.0 0.00 0.00 0.00 91 1010.5
20260505054832 53 186 0.0 2.0 0.00 0.00 0.00 91 1010.4
20260505054330 53 186 0.0 2.0 0.00 0.00 0.00 90 1010.4
20260505053846 53 51 0.0 2.0 0.00 0.00 0.00 91 1010.4
20260505053313 53 149 0.0 1.0 0.00 0.00 0.00 90 1010.3
20260505052840 53 315 0.0 0.0 0.00 0.00 0.00 89 1010.3
20260505052306 53 315 0.0 0.0 0.00 0.00 0.00 88 1010.3
20260505051829 54 307 0.0 2.0 0.00 0.00 0.00 87 1010.1
20260505051325 54 315 0.0 2.0 0.00 0.00 0.00 87 1010.1
20260505050826 55 289 0.0 0.0 0.00 0.00 0.00 86 1010.1
20260505050326 55 289 0.0 2.0 0.00 0.00 0.00 86 1010.0
20260505041317 59 308 0.0 0.0 0.00 0.00 0.00 81 1009.6
20260505040815 59 308 0.0 0.0 0.00 0.00 0.00 80 1009.6
20260505040337 59 308 0.0 0.0 0.00 0.00 0.00 81 1009.6
20260505035809 59 308 0.0 0.0 0.00 0.00 0.00 80 1009.6
20260505035331 59 308 0.0 1.0 0.00 0.00 0.00 80 1009.6
20260505034811 59 308 0.0 2.0 0.00 0.00 0.00 80 1009.5
20260505034332 59 308 0.0 2.0 0.00 0.00 0.00 80 1009.5
20260505033830 59 308 0.0 2.0 0.00 0.00 0.00 80 1009.5
20260505033326 59 308 0.0 1.0 0.00 0.00 0.00 80 1009.5
20260505032823 59 308 0.0 0.0 0.00 0.00 0.00 79 1009.5
20260505032329 60 308 0.0 2.0 0.00 0.00 0.00 78 1009.5
20260505031830 60 308 0.0 2.0 0.00 0.00 0.00 78 1009.5
20260505031322 61 308 0.0 2.0 0.00 0.00 0.00 76 1009.5
20260505030830 61 308 0.0 2.0 0.00 0.00 0.00 76 1009.5
20260505030330 62 308 0.0 2.0 0.00 0.00 0.00 74 1009.4
20260505025830 63 314 0.0 2.0 0.00 0.00 0.00 73 1009.4
20260505025326 63 290 1.0 2.0 0.00 0.00 0.00 72 1009.4
20260505024855 64 324 0.0 2.0 0.00 0.00 0.00 71 1009.4
20260505024334 64 288 0.0 3.0 0.00 0.00 0.00 70 1009.4
20260505023818 65 288 1.0 3.0 0.00 0.00 0.00 69 1009.4
20260505023333 66 289 0.0 0.0 0.00 0.00 0.00 68 1009.1
20260505022825 66 329 0.0 0.0 0.00 0.00 0.00 67 1009.1
20260505022319 67 303 0.0 0.0 0.00 0.00 0.00 67 1009.1
20260505021830 67 303 0.0 1.0 0.00 0.00 0.00 67 1009.4
20260505021305 67 303 0.0 3.0 0.00 0.00 0.00 67 1009.4
20260505020808 67 285 2.0 3.0 0.00 0.00 0.00 66 1009.4
20260505020330 68 305 1.0 2.0 0.00 0.00 0.00 65 1009.6
20260505015826 68 318 0.0 2.0 0.00 0.00 0.00 66 1009.6
20260505015334 68 316 1.0 2.0 0.00 0.00 0.00 64 1009.6
20260505014805 68 337 1.0 2.0 0.00 0.00 0.00 63 1009.8
20260505014327 69 321 0.0 2.0 0.00 0.00 0.00 63 1009.8
20260505013843 68 289 1.0 3.0 0.00 0.00 0.00 64 1009.8
20260505013313 69 308 1.0 3.0 0.00 0.00 0.00 64 1009.9
20260505012837 69 325 2.0 3.0 0.00 0.00 0.00 62 1009.9
20260505012309 70 276 1.0 3.0 0.00 0.00 0.00 62 1009.9
20260505011826 70 274 1.0 3.0 0.00 0.00 0.00 62 1010.0
20260505011325 71 272 2.0 4.0 0.00 0.00 0.00 61 1010.0
20260505010805 71 299 1.0 5.0 0.00 0.00 0.00 61 1010.0
20260505010308 72 280 1.0 4.0 0.00 0.00 0.00 62 1010.0
20260505005831 72 301 2.0 4.0 0.00 0.00 0.00 62 1010.0
20260505005322 72 302 2.0 4.0 0.00 0.00 0.00 61 1010.0
20260505004838 71 343 0.0 3.0 0.00 0.00 0.00 61 1010.0
20260505004330 71 317 1.0 4.0 0.00 0.00 0.00 61 1010.0
20260505003846 71 298 2.0 4.0 0.00 0.00 0.00 60 1010.0
20260505003324 72 303 2.0 6.0 0.00 0.00 0.00 62 1010.0
20260505002823 72 299 2.0 6.0 0.00 0.00 0.00 63 1010.0
20260505002320 72 325 3.0 5.0 0.00 0.00 0.00 61 1010.0
20260505001851 72 328 2.0 5.0 0.00 0.00 0.00 60 1010.0
20260505001347 72 314 1.0 5.0 0.00 0.00 0.00 58 1010.0
20260505000816 72 306 1.0 6.0 0.00 0.00 0.00 59 1010.0
20260505000336 72 286 3.0 6.0 0.00 0.00 0.00 55 1010.0
20260504235811 72 291 0.0 5.0 0.00 0.00 0.00 57 1010.0
20260504235309 72 306 3.0 4.0 0.00 0.00 0.00 53 1010.0
20260504234810 72 299 2.0 4.0 0.00 0.00 0.00 55 1010.0
20260504234308 72 289 2.0 4.0 0.00 0.00 0.00 56 1010.0
20260504233825 72 26 2.0 4.0 0.00 0.00 0.00 56 1010.0
20260504233341 72 339 2.0 6.0 0.00 0.00 0.00 58 1010.0
20260504232816 71 307 3.0 6.0 0.00 0.00 0.00 57 1010.0
20260504232314 71 337 2.0 5.0 0.00 0.00 0.00 58 1010.0
20260504231856 71 285 1.0 5.0 0.00 0.00 0.00 60 1010.1
20260504231307 70 337 3.0 6.0 0.00 0.00 0.00 58 1010.1
20260504230829 70 307 2.0 6.0 0.00 0.00 0.00 61 1010.1
20260504230326 70 306 3.0 6.0 0.00 0.00 0.00 58 1010.8
20260504225823 70 310 4.0 6.0 0.00 0.00 0.00 59 1010.8
20260504225310 70 295 4.0 6.0 0.00 0.00 0.00 60 1010.8
20260504224827 71 304 4.0 6.0 0.00 0.00 0.00 61 1010.9
20260504224309 71 326 3.0 6.0 0.00 0.00 0.00 61 1010.9
20260504223850 71 306 3.0 6.0 0.00 0.00 0.00 60 1010.9
20260504223305 72 320 4.0 6.0 0.00 0.00 0.00 59 1010.9
20260504222810 72 293 3.0 6.0 0.00 0.00 0.00 58 1010.9
20260504222331 72 310 3.0 5.0 0.00 0.00 0.00 58 1010.9
20260504221808 72 281 2.0 4.0 0.00 0.00 0.00 58 1011.0
20260504221330 72 321 2.0 5.0 0.00 0.00 0.00 57 1011.0
20260504220835 72 318 3.0 5.0 0.00 0.00 0.00 57 1011.0
20260504220309 72 278 2.0 5.0 0.00 0.00 0.00 59 1011.1
20260504215822 71 327 3.0 5.0 0.00 0.00 0.00 58 1011.1
20260504215320 71 329 3.0 5.0 0.00 0.00 0.00 57 1011.1
20260504214837 72 300 2.0 6.0 0.00 0.00 0.00 55 1011.2
20260504214348 72 330 4.0 6.0 0.00 0.00 0.00 58 1011.2
20260504213807 72 291 2.0 6.0 0.00 0.00 0.00 57 1011.2
20260504213358 72 321 4.0 6.0 0.00 0.00 0.00 56 1011.3
20260504212829 72 335 2.0 6.0 0.00 0.00 0.00 56 1011.3
20260504212325 72 332 2.0 5.0 0.00 0.00 0.00 56 1011.3
20260504211806 72 337 2.0 5.0 0.00 0.00 0.00 55 1011.4
20260504211317 72 325 3.0 6.0 0.00 0.00 0.00 54 1011.4
20260504210851 72 295 3.0 6.0 0.00 0.00 0.00 56 1011.4
20260504210322 73 309 3.0 6.0 0.00 0.00 0.00 60 1011.2
20260504205825 73 343 4.0 7.0 0.00 0.00 0.00 58 1011.2
20260504205327 73 342 3.0 7.0 0.00 0.00 0.00 59 1011.2
20260504204807 74 312 2.0 6.0 0.00 0.00 0.00 59 1011.1
20260504204331 74 312 3.0 6.0 0.00 0.00 0.00 56 1011.1
20260504203809 73 347 3.0 6.0 0.00 0.00 0.00 56 1011.1
20260504203311 73 290 2.0 5.0 0.00 0.00 0.00 56 1011.2
20260504202830 73 341 2.0 5.0 0.00 0.00 0.00 58 1011.2
20260504202328 73 289 3.0 5.0 0.00 0.00 0.00 57 1011.2
20260504201845 73 347 3.0 5.0 0.00 0.00 0.00 57 1011.2
20260504201323 74 310 3.0 7.0 0.00 0.00 0.00 56 1011.2
20260504200820 74 318 3.0 7.0 0.00 0.00 0.00 56 1011.2
20260504200312 74 324 4.0 6.0 0.00 0.00 0.00 54 1011.2
20260504195830 74 352 1.0 6.0 0.00 0.00 0.00 52 1011.2
20260504195308 75 309 2.0 6.0 0.00 0.00 0.00 50 1011.2
20260504194829 74 303 1.0 6.0 0.00 0.00 0.00 49 1011.2
20260504194351 74 306 1.0 6.0 0.00 0.00 0.00 50 1011.2
20260504193805 74 348 1.0 5.0 0.00 0.00 0.00 47 1011.2
20260504193334 74 314 2.0 6.0 0.00 0.00 0.00 49 1011.4
20260504192850 74 276 2.0 6.0 0.00 0.00 0.00 49 1011.4
20260504192320 74 6 1.0 5.0 0.00 0.00 0.00 48 1011.4
20260504191808 74 316 2.0 5.0 0.00 0.00 0.00 48 1011.2
20260504191353 74 322 2.0 5.0 0.00 0.00 0.00 48 1011.2
20260504190853 74 306 2.0 5.0 0.00 0.00 0.00 49 1011.2
20260504190325 73 293 2.0 5.0 0.00 0.00 0.00 51 1011.2
20260504185838 73 322 2.0 5.0 0.00 0.00 0.00 51 1011.2
20260504185325 73 320 2.0 6.0 0.00 0.00 0.00 51 1011.2
20260504184820 73 291 3.0 6.0 0.00 0.00 0.00 50 1011.4
20260504184307 73 6 2.0 5.0 0.00 0.00 0.00 52 1011.4
20260504183807 72 307 2.0 6.0 0.00 0.00 0.00 53 1011.4
20260504183323 72 272 3.0 8.0 0.00 0.00 0.00 52 1011.6
20260504182820 72 325 4.0 8.0 0.00 0.00 0.00 53 1011.6
20260504182310 72 316 4.0 7.0 0.00 0.00 0.00 52 1011.6
20260504181834 71 285 3.0 7.0 0.00 0.00 0.00 55 1011.5
20260504181353 71 275 4.0 8.0 0.00 0.00 0.00 53 1011.5
20260504180824 71 281 4.0 8.0 0.00 0.00 0.00 55 1011.5
20260504180331 70 304 4.0 9.0 0.00 0.00 0.00 54 1011.3
20260504175827 70 293 5.0 9.0 0.00 0.00 0.00 54 1011.3
20260504175319 71 324 3.0 9.0 0.00 0.00 0.00 56 1011.3
20260504174832 71 330 5.0 8.0 0.00 0.00 0.00 55 1011.2
20260504174312 70 317 3.0 9.0 0.00 0.00 0.00 56 1011.2
20260504173830 70 305 5.0 9.0 0.00 0.00 0.00 54 1011.2
20260504173309 71 276 4.0 8.0 0.00 0.00 0.00 57 1011.3
20260504172830 70 350 4.0 9.0 0.00 0.00 0.00 53 1011.3
20260504172310 71 333 5.0 10.0 0.00 0.00 0.00 54 1011.3
20260504171830 71 326 5.0 10.0 0.00 0.00 0.00 52 1011.4
20260504171307 70 282 4.0 9.0 0.00 0.00 0.00 56 1011.4
20260504170825 70 303 2.0 7.0 0.00 0.00 0.00 58 1011.4
20260504170341 70 299 5.0 7.0 0.00 0.00 0.00 55 1011.4
20260504160327 70 318 3.0 6.0 0.00 0.00 0.00 50 1011.1
20260504150823 69 287 0.0 0.0 0.00 0.00 0.00 51 1010.9
20260504150323 69 316 0.0 0.0 0.00 0.00 0.00 52 1010.8
20260504141327 65 220 0.0 1.0 0.00 0.00 0.00 64 1010.5
20260504140818 65 220 0.0 2.0 0.00 0.00 0.00 62 1010.5
20260504140331 65 220 0.0 2.0 0.00 0.00 0.00 62 1010.5
20260504130329 60 195 4.0 5.0 0.00 0.00 0.00 60 1010.3
20260504120305 59 248 0.0 1.0 0.00 0.00 0.00 60 1010.0
20260504110330 59 170 1.0 3.0 0.00 0.00 0.00 59 1010.0
20260504100327 59 178 2.0 5.0 0.00 0.00 0.00 59 1009.9
20260504081825 59 220 0.0 0.0 0.00 0.00 0.00 62 1010.0
20260504081326 58 199 0.0 2.0 0.00 0.00 0.00 63 1010.0
20260504080813 59 198 1.0 4.0 0.00 0.00 0.00 64 1010.0
20260504080327 58 166 2.0 4.0 0.00 0.00 0.00 62 1010.0
20260504070311 59 180 1.0 3.0 0.00 0.00 0.00 63 1010.3